Wind_Speed
7 7 8 8 9 10 11 11 12 12 13 14 15 16 16 17 17 17 17 17 17 17 17 17 17 17 17 17 17 16 16 15 14 13 11 10 9 8 7 7 7 7 7 7
8 9 9 10 11 12 12 12 13 13 14 15 16 17 17 18 18 18 18 18 18 19 18 18 18 19 19 18 18 18 18 17 17 15 14 12 11 10 9 8 7 6 6 6
9 11 11 12 13 14 15 15 15 15 15 16 17 17 18 18 19 19 19 19 19 20 20 20 20 20 20 20 20 20 20 20 19 18 17 15 14 12 11 10 9 8 7 7
12 13 13 15 16 17 17 17 16 16 17 18 19 20 20 20 21 21 21 20 20 21 22 22 22 22 22 22 22 22 22 22 22 21 20 18 16 15 14 13 11 10 9 8
15 16 16 17 18 20 20 19 18 18 19 20 21 22 22 23 24 23 23 23 23 23 24 24 24 24 24 24 23 23 24 24 24 24 23 21 20 18 17 16 14 13 11 10
20 21 20 20 21 22 24 23 21 21 22 23 24 25 26 26 26 27 27 26 26 26 27 27 27 26 26 26 26 25 26 26 26 26 25 24 23 22 20 19 17 16 14 13
24 25 25 25 24 25 27 26 26 26 26 27 27 28 29 29 29 29 29 29 29 29 29 30 30 30 29 28 28 28 29 28 28 28 28 27 26 25 24 22 21 19 18 16
27 28 28 29 29 29 29 30 29 29 30 31 31 32 33 33 33 33 33 33 32 32 32 32 33 33 32 32 31 31 31 31 30 30 30 30 29 28 27 26 24 23 21 20
30 31 32 32 33 33 33 34 34 34 34 35 36 36 37 37 37 37 37 37 37 36 35 36 36 36 36 35 35 35 34 33 33 33 33 32 32 31 30 29 28 26 25 23
34 35 36 36 37 37 38 38 39 39 39 40 41 41 41 41 41 41 41 41 41 41 40 39 39 40 40 39 39 38 37 36 36 35 35 35 34 34 33 32 30 29 28 27
37 38 39 40 40 41 42 43 44 44 45 45 46 47 47 46 45 45 45 45 45 45 44 43 43 43 43 43 42 41 40 39 39 38 37 37 37 36 35 34 33 32 31 30
39 40 42 42 43 45 46 47 48 49 50 50 51 51 51 51 51 50 49 48 48 47 47 47 47 46 46 47 46 45 44 43 42 41 40 40 39 39 38 37 36 35 34 32
44 44 45 46 46 47 49 50 51 51 52 52 53 53 54 54 54 54 53 52 51 50 50 50 50 50 50 50 50 50 48 47 46 45 44 43 42 41 40 39 38 37 36 35
48 48 48 48 49 51 52 52 53 54 54 54 55 56 56 57 57 56 55 55 54 53 53 53 53 53 54 54 53 53 52 52 50 48 47 46 45 44 43 42 41 40 39 38
50 51 51 52 53 53 54 55 55 55 55 56 57 58 59 59 58 58 58 57 57 56 55 54 54 55 55 56 55 55 55 54 54 52 50 49 48 47 45 44 43 42 41 40
52 52 52 53 54 55 55 55 56 56 57 58 58 59 60 60 59 58 58 58 57 56 55 54 54 54 55 56 56 56 56 56 56 55 53 52 51 49 48 47 45 44 43 41
53 52 53 54 55 55 56 56 57 57 58 59 59 60 60 60 59 59 58 58 57 55 54 54 53 54 55 55 55 55 56 56 57 58 56 54 53 51 50 49 47 46 45 43
53 53 54 55 55 56 57 57 58 58 59 60 60 60 60 60 59 58 58 57 56 54 53 54 53 53 53 53 54 54 55 55 57 58 58 56 55 53 52 51 50 48 46 46
53 54 55 56 56 57 58 58 59 59 60 60 60 60 60 60 59 58 58 57 56 54 52 52 52 52 51 51 52 52 54 54 56 57 57 58 57 55 54 52 51 50 48 47
55 55 56 56 57 58 58 59 60 60 60 61 61 60 59 58 58 58 58 56 54 53 52 50 49 49 49 49 50 51 52 53 55 56 57 58 58 57 56 55 53 52 50 49
54 55 55 56 57 58 59 59 60 60 61 61 60 60 59 58 58 57 56 53 51 50 49 48 47 46 46 47 47 48 50 51 52 54 55 56 57 57 57 57 55 53 51 50
55 55 56 56 57 57 58 59 59 60 60 60 59 59 58 56 55 54 52 50 48 47 46 45 43 44 44 44 45 46 47 49 50 52 53 54 55 56 56 56 56 55 53 51
54 54 55 55 55 56 57 57 58 58 58 57 56 55 54 53 51 50 48 46 45 43 43 41 41 41 42 42 42 43 45 46 47 49 50 51 53 55 54 54 55 55 54 52
52 53 53 54 54 55 55 55 55 55 54 53 52 51 50 49 48 46 45 43 41 41 40 39 39 40 40 40 40 41 41 43 44 46 48 49 50 52 53 54 53 53 53 52
52 52 52 53 53 53 53 53 53 52 51 50 48 47 47 47 46 44 42 41 40 39 39 39 39 39 39 39 39 39 40 40 42 43 46 47 48 49 51 52 52 50 50 50
51 51 51 51 51 51 51 51 50 48 47 46 45 45 44 44 43 42 40 39 38 38 38 38 37 37 36 36 36 37 37 38 40 41 42 44 45 47 48 49 50 49 48 48
49 49 49 49 49 49 48 47 47 46 45 45 43 42 41 41 40 40 39 38 37 37 37 36 35 33 33 33 34 35 35 35 38 39 40 42 43 45 46 47 48 48 47 46
Wind_Direction
336 326 324 323 314 308 308 307 304 305 303 305 307 308 308 307 307 304 299 295 291 289 285 281 280 279 276 271 267 265 265 265 266 270 274 279 286 295 306 316 325 333 339 344
332 327 324 316 313 311 311 312 313 313 314 314 314 313 311 309 307 303 299 294 290 289 284 279 277 277 276 272 267 264 263 262 262 263 266 268 272 278 286 294 301 310 322 330
321 319 315 309 312 313 313 314 315 314 313 313 313 311 308 306 304 302 299 295 291 289 286 282 277 274 273 271 268 264 262 261 260 260 260 262 264 267 272 277 282 290 299 307
317 314 309 312 312 311 310 313 314 314 312 309 307 306 305 302 300 298 297 295 291 287 285 283 279 275 272 271 268 266 263 260 258 257 257 257 259 261 264 267 271 275 281 287
315 311 309 310 312 312 312 315 315 311 308 305 304 303 302 302 300 297 294 292 289 286 284 281 279 275 273 270 268 266 264 260 258 256 256 255 256 257 259 261 263 265 269 273
312 310 311 311 311 311 310 313 313 308 304 301 300 299 300 299 298 296 294 292 289 286 284 281 278 276 273 270 267 265 263 261 259 257 256 255 254 255 256 257 258 260 263 266
310 309 310 311 311 309 308 310 309 307 304 302 300 298 296 294 292 292 290 288 286 285 283 281 278 276 273 270 267 264 262 261 260 257 255 254 254 254 254 255 256 257 259 261
306 306 307 309 309 307 305 305 305 304 302 300 299 297 296 294 292 290 288 286 284 282 280 279 277 275 273 269 266 263 261 260 258 257 255 254 253 253 253 254 254 255 256 258
302 303 304 305 304 304 303 302 302 301 300 299 298 297 296 295 293 290 288 285 283 280 277 276 275 273 271 269 265 262 260 258 256 255 254 253 252 252 252 253 253 253 254 256
299 301 301 301 301 302 301 300 300 299 299 298 297 296 295 294 292 289 287 284 282 279 276 274 272 271 270 267 265 262 259 257 255 253 253 252 251 251 251 251 252 253 253 254
297 298 298 299 299 299 298 298 298 298 297 296 296 294 293 292 291 288 286 284 281 279 276 273 270 268 267 266 264 262 259 256 254 253 252 251 250 250 250 250 251 251 252 253
295 295 295 297 296 296 296 296 296 296 296 295 294 293 292 291 290 287 285 283 281 279 276 273 271 268 265 264 263 261 258 256 254 252 251 250 249 249 249 249 249 249 251 252
294 294 294 295 294 294 294 294 294 294 293 292 292 291 291 290 289 287 285 283 280 278 275 273 270 267 265 262 261 259 257 255 253 252 250 249 248 248 248 247 248 248 249 250
294 294 294 294 293 293 293 292 292 292 291 291 291 291 291 290 289 287 286 284 281 279 276 273 270 267 264 261 259 257 255 253 251 250 249 248 247 247 247 246 246 246 247 248
293 293 293 293 292 292 292 292 292 291 291 291 291 291 291 290 289 288 286 284 282 280 277 273 270 266 262 259 257 255 254 252 250 248 247 246 246 245 245 245 245 245 245 246
292 292 292 292 292 292 292 292 291 291 291 291 291 291 290 290 289 289 287 285 283 281 278 274 270 266 263 260 256 254 252 250 248 247 246 244 244 244 244 244 244 244 244 245
291 291 291 291 292 291 291 291 291 291 291 291 291 291 291 290 290 289 288 286 284 281 278 274 270 267 264 261 257 253 250 248 247 245 243 242 242 242 242 242 242 242 243 243
290 291 291 291 291 291 291 291 292 292 292 292 292 292 292 291 291 290 289 287 285 282 278 275 271 268 264 261 257 253 249 247 245 244 242 241 240 239 239 239 239 240 241 242
290 290 291 291 291 292 292 292 293 293 293 293 293 293 293 292 292 291 290 288 286 282 278 275 271 267 264 260 257 253 250 247 244 243 241 240 239 237 237 236 237 237 239 241
290 291 291 291 292 292 292 292 292 293 293 293 293 293 293 292 291 291 290 288 286 283 278 274 270 267 263 260 258 254 250 247 244 242 240 239 238 236 235 235 234 235 236 238
290 291 291 291 291 291 292 292 293 293 293 293 293 293 292 292 291 291 290 289 285 281 278 274 270 267 264 260 258 255 252 249 245 241 240 239 236 235 234 233 233 233 234 236
289 290 290 290 291 291 292 293 293 293 294 294 293 293 293 292 291 291 290 289 286 282 278 274 270 268 265 262 259 256 253 249 245 241 239 238 236 234 232 231 231 231 232 233
289 289 289 290 291 292 292 293 293 293 294 294 294 294 293 293 292 291 290 288 285 282 279 274 271 269 267 264 260 256 253 249 244 240 237 235 234 232 230 229 229 229 230 231
288 288 289 290 290 291 292 292 293 293 294 294 294 294 293 293 292 291 290 288 284 282 280 277 273 271 268 264 260 256 253 248 243 238 235 233 232 230 229 227 228 229 229 230
286 288 288 289 290 290 291 292 293 293 294 293 294 294 293 293 293 291 289 286 283 283 282 280 277 273 269 264 260 256 251 246 241 237 234 232 230 228 227 226 226 227 227 228
286 287 288 288 289 290 291 292 293 294 293 293 294 294 293 293 292 291 289 287 285 284 283 281 278 274 270 264 259 255 250 243 238 235 231 229 228 226 225 224 225 226 227 227
285 286 287 287 288 290 291 292 293 294 294 295 295 295 294 293 291 290 289 288 286 285 284 281 278 274 270 264 258 253 247 241 236 232 228 226 224 224 223 223 224 225 226 226
Height
5831 5830 5829 5829 5828 5827 5826 5825 5824 5823 5821 5820 5819 5818 5816 5815 5813 5812 5811 5809 5808 5807 5806 5805 5804 5804 5803 5802 5802 5802 5801 5801 5801 5800 5799 5798 5797 5796 5795 5794 5792 5791 5789 5788
5829 5828 5827 5826 5825 5824 5823 5822 5821 5819 5818 5816 5815 5814 5813 5811 5809 5808 5806 5805 5804 5803 5801 5800 5800 5799 5798 5798 5797 5797 5797 5797 5796 5796 5795 5795 5794 5793 5792 5792 5790 5789 5788 5787
5827 5825 5824 5823 5822 5820 5819 5818 5818 5816 5816 5813 5811 5810 5808 5807 5805 5803 5802 5800 5799 5798 5797 5795 5794 5794 5793 5792 5792 5792 5791 5791 5791 5791 5791 5791 5790 5790 5789 5788 5788 5787 5786 5785
5824 5823 5822 5822 5818 5816 5815 5815 5813 5812 5810 5809 5807 5806 5804 5802 5800 5798 5797 5795 5794 5792 5791 5790 5789 5788 5787 5787 5786 5786 5786 5786 5786 5786 5786 5786 5786 5785 5785 5785 5784 5784 5783 5782
5820 5819 5818 5816 5814 5811 5810 5810 5809 5807 5806 5803 5801 5800 5798 5796 5794 5792 5790 5789 5787 5786 5785 5783 5782 5781 5781 5780 5780 5780 5779 5779 5779 5779 5780 5780 5780 5780 5780 5780 5780 5780 5779 5779
5814 5813 5812 5812 5809 5806 5805 5804 5803 5801 5800 5798 5795 5794 5792 5790 5787 5785 5783 5782 5780 5779 5777 5776 5775 5774 5774 5773 5773 5772 5772 5772 5772 5773 5773 5774 5774 5774 5774 5775 5775 5775 5775 5775
5808 5805 5804 5804 5803 5801 5799 5799 5796 5794 5792 5790 5788 5786 5784 5782 5779 5777 5775 5774 5772 5770 5769 5767 5766 5766 5766 5765 5765 5764 5764 5764 5764 5765 5765 5766 5767 5767 5768 5768 5769 5769 5770 5769
5800 5798 5799 5796 5794 5793 5792 5789 5787 5785 5783 5781 5779 5776 5774 5772 5770 5768 5766 5764 5762 5761 5760 5758 5756 5756 5756 5756 5755 5755 5755 5756 5756 5756 5757 5757 5758 5759 5760 5761 5762 5763 5763 5763
5794 5793 5790 5788 5786 5784 5782 5779 5777 5775 5773 5771 5768 5766 5763 5761 5759 5757 5755 5753 5751 5750 5749 5747 5746 5745 5744 5744 5744 5745 5745 5746 5746 5747 5747 5748 5749 5750 5752 5753 5754 5755 5756 5756
5784 5782 5780 5778 5776 5774 5771 5769 5766 5764 5761 5759 5756 5754 5751 5749 5747 5744 5742 5740 5738 5737 5736 5735 5733 5732 5732 5732 5732 5733 5734 5735 5735 5736 5737 5738 5739 5740 5742 5743 5745 5746 5747 5748
5774 5772 5769 5767 5765 5762 5759 5757 5754 5751 5749 5746 5743 5740 5737 5735 5733 5730 5728 5726 5724 5723 5722 5721 5720 5719 5718 5718 5718 5719 5721 5722 5723 5724 5725 5727 5728 5730 5731 5733 5735 5736 5738 5739
5765 5762 5758 5757 5753 5750 5747 5744 5741 5738 5734 5731 5727 5724 5721 5718 5716 5714 5712 5710 5708 5707 5706 5705 5704 5704 5703 5703 5703 5705 5706 5708 5709 5711 5713 5714 5716 5718 5719 5722 5723 5725 5727 5729
5752 5750 5747 5744 5741 5737 5734 5730 5727 5723 5719 5716 5712 5708 5704 5701 5699 5696 5694 5692 5690 5689 5688 5687 5687 5686 5686 5686 5687 5688 5690 5692 5694 5696 5698 5701 5703 5705 5707 5709 5711 5713 5716 5718
5738 5736 5733 5730 5726 5723 5719 5715 5711 5707 5703 5699 5695 5691 5687 5683 5680 5677 5675 5672 5670 5669 5668 5667 5667 5667 5666 5666 5668 5669 5672 5674 5677 5680 5683 5685 5688 5691 5694 5696 5698 5701 5703 5706
5724 5721 5718 5714 5711 5707 5703 5698 5694 5690 5686 5682 5677 5673 5669 5665 5661 5657 5654 5651 5649 5648 5646 5645 5645 5645 5644 5645 5647 5650 5652 5655 5659 5662 5666 5669 5672 5676 5679 5682 5685 5688 5690 5693
5709 5706 5702 5698 5695 5691 5686 5682 5677 5673 5668 5664 5659 5654 5649 5645 5641 5637 5633 5630 5627 5626 5624 5623 5623 5623 5622 5624 5626 5629 5632 5635 5639 5643 5648 5652 5656 5660 5664 5667 5671 5674 5677 5681
5693 5690 5686 5682 5678 5673 5669 5664 5660 5655 5650 5646 5641 5635 5630 5625 5621 5617 5613 5609 5606 5604 5602 5601 5601 5601 5601 5602 5604 5607 5611 5615 5618 5623 5628 5633 5638 5643 5648 5652 5656 5660 5664 5667
5675 5673 5669 5665 5661 5656 5652 5647 5642 5637 5632 5626 5621 5616 5611 5606 5601 5597 5593 5589 5586 5584 5582 5579 5579 5579 5580 5580 5582 5586 5589 5594 5598 5603 5608 5614 5619 5625 5630 5635 5640 5645 5649 5652
5659 5655 5652 5647 5643 5638 5633 5629 5623 5618 5612 5607 5601 5596 5591 5586 5581 5576 5572 5569 5565 5563 5562 5559 5558 5558 5559 5560 5561 5564 5568 5573 5577 5582 5588 5594 5600 5606 5612 5618 5624 5629 5633 5637
5641 5637 5633 5629 5624 5620 5615 5610 5605 5599 5594 5587 5582 5577 5572 5567 5561 5556 5552 5549 5545 5542 5540 5539 5538 5538 5539 5540 5541 5544 5547 5552 5557 5562 5567 5573 5580 5587 5593 5600 5606 5612 5617 5622
5624 5620 5615 5611 5607 5602 5597 5591 5586 5581 5575 5569 5563 5558 5553 5548 5543 5537 5533 5530 5528 5523 5521 5520 5520 5520 5520 5521 5523 5525 5528 5532 5536 5542 5547 5554 5560 5567 5574 5582 5588 5595 5601 5607
5606 5602 5598 5593 5589 5584 5579 5573 5567 5562 5556 5551 5545 5539 5534 5529 5525 5520 5516 5512 5509 5506 5504 5504 5503 5503 5503 5504 5505 5507 5510 5513 5517 5523 5529 5535 5541 5548 5556 5563 5571 5578 5585 5591
5588 5584 5580 5575 5571 5567 5562 5556 5549 5544 5538 5533 5527 5522 5516 5512 5507 5503 5500 5498 5493 5491 5489 5488 5487 5487 5487 5487 5488 5490 5492 5495 5499 5505 5510 5517 5523 5531 5538 5546 5554 5561 5568 5575
5570 5566 5562 5558 5553 5549 5544 5539 5533 5527 5522 5516 5511 5506 5500 5496 5493 5489 5484 5482 5479 5477 5475 5474 5472 5472 5471 5471 5472 5474 5476 5479 5483 5488 5494 5500 5507 5514 5522 5530 5537 5545 5553 5560
5553 5549 5545 5541 5536 5532 5527 5522 5517 5512 5507 5502 5497 5492 5486 5481 5477 5474 5471 5468 5466 5463 5461 5460 5458 5457 5456 5456 5457 5459 5461 5463 5467 5473 5479 5485 5492 5499 5507 5515 5523 5530 5538 5545
5536 5533 5529 5524 5520 5515 5511 5506 5502 5497 5492 5488 5484 5479 5474 5469 5464 5461 5458 5455 5453 5450 5448 5446 5444 5443 5442 5442 5443 5444 5446 5449 5453 5459 5465 5471 5478 5485 5493 5501 5510 5517 5525 5532
5520 5516 5513 5509 5505 5500 5496 5492 5487 5483 5478 5474 5470 5466 5461 5457 5453 5449 5446 5443 5440 5438 5435 5433 5431 5430 5429 5429 5429 5431 5433 5437 5441 5446 5452 5458 5465 5473 5481 5489 5497 5505 5512 5519